Regional Weather Roundup
Issued by NWS

Home | Current Version | Previous Version | Graphics & Text | Print | Product List | Glossary On
Versions: 1 2 3 4 5 6 7 8 9 10 11 12 13 14 15 16 17 18 19 20 21 22 23 24 25 26 27 28 29 30 31 32 33 34 35 36 37 38 39 40 41 42 43 44 45 46 47 48 49 50
183
ASUS43 KLMK 191910
RWRKY
KENTUCKY REGIONAL WEATHER ROUNDUP
NATIONAL WEATHER SERVICE LOUISVILLE KY
200 PM EST SUN FEB 19 2017

NOTE "FAIR" INDICATES FEW OR NO CLOUDS BELOW 12,000 FEET
WITH NO SIGNIFICANT WEATHER AND/OR OBSTRUCTIONS TO VISIBILITY.

KYZ001>023-026-027-061>063-070>075-192000-
WESTERN AND SOUTH CENTRAL KENTUCKY

CITY           SKY/WX    TMP DP  RH WIND       PRES   REMARKS
PADUCAH        CLOUDY    57  52  83 CALM      30.10F
HENDERSON      CLOUDY    55  48  76 SW6       30.11R
OWENSBORO      CLOUDY    53  49  86 CALM      30.12S FOG
HOPKINSVILLE   SUNNY     66  55  68 CALM      30.10S
BOWLING GREEN  PTSUNNY   63  51  65 SW6       30.11F
GLASGOW        MOSUNNY   62  50  64 SW5       30.10F
$$

KYZ024-025-028>034-038-045-046-053-192000-
NORTH CENTRAL KENTUCKY

CITY           SKY/WX    TMP DP  RH WIND       PRES   REMARKS
LOUISVILLE/SDF CLOUDY    58  49  72 CALM      30.10S HAZE
LOUISVILLE/LOU CLOUDY    57  49  74 W3        30.11S
FORT KNOX      CLOUDY    56  51  85 W6        30.09R
$$

KYZ035>037-039>044-047>052-055>060-089>105-192000-
NORTHEAST KENTUCKY

CITY           SKY/WX    TMP DP  RH WIND       PRES   REMARKS
LEXINGTON      CLOUDY    55  48  77 VRB3      30.11S
COVINGTON      CLOUDY    55  47  74 W6        30.09F
FRANKFORT      CLOUDY    54  47  77 W3        30.10S
$$

KYZ054-064>069-076>088-106>120-192000-
SOUTHEAST KENTUCKY

CITY           SKY/WX    TMP DP  RH WIND       PRES   REMARKS
JACKSON        MOSUNNY   58  45  62 VRB3      30.10F
LONDON         MOSUNNY   58  45  62 SW6       30.11S
SOMERSET       SUNNY     59  45  58 SW5       30.11F
MIDDLESBORO    SUNNY     61  47  60 NE3       30.12F
MONTICELLO     CLEAR     63  49  60 NW8       30.11F
$$





USA.gov is the U.S. government's official web portal to all federal, state and local government web resources and services.